ONEWEB-0022, 45135

Orbit data source: Space-Track

ONEWEB-0022, 45135 is a payload satellite owned by One Web (UK) in LEO that was launched on Thu, 06 Feb 2020 UTC via a SOYUZ-2-1B launch vehicle from the Tyuratam Missile And Space Complex (TTMTR). Payload-class satellites include a variety of spacecraft equipped with specific instruments for various scientific and technological missions. These include communications satellites like Starlink; space stations such as the ISS; scientific satellites like the Hubble; Earth observation satellites from companies like Planet Labs, Umbra, and HawkEye 360; GPS; miniature CubeSats for education and research; and military/defense satellites.

Loading next visibility...
Identifier
45135, 2020-008E
Orbit
LEO
Last TLE update
17 hours ago
Origin
Manufacturer
One Web
Mission
Non-operational Commercial Communications
Bus & Motor
ARROW, Unknown motor
Mass
148 kg wet, ~140 kg dry
Launch date (UTC)
2020-02-06 (5 years ago)
Launch vehicle
SOYUZ-2-1B
Launch site
Tyuratam Missile And Space Complex (TTMTR)
Object type
Payload
Rocket body
Debris
Shape & HBR
Trap Box + 2 Pan, 5 m
Radar Cross Section
2.957 m², Large (>1 m²)

Expand to show TLE details & history

TLE from 17 hours ago
0 ONEWEB-0022
1 45135U 20008E   25188.68935957  .00000483  00000-0  13468-2 0  9993
2 45135  87.8829 105.0087 0002078  74.6271 285.5086 13.10457679263230
Epoch: 2025-07-07T16:32Z
TLE epoch observation values (Epoch: 2025-07-07T16:32:40.666Z)
Latitude
-0.00003°
Longitude
-69.05583°
Altitude
1,223.855 km
Speed
7.243 km/s
True Right ascension
07h 00m 02s
True Declination
0° 00' 00"
Sunlit
Object was in daylight at epoch
Visualization orbit readout
Latitude
4.89977°
Longitude
-69.01217°
Altitude
1,223.176 km
Speed
7.243 km/s
Apparent Right ascension
07h 50m 38s
Apparent Declination
-15° 55' 39"
Sunlit
Object is in daylight
Visualization observer readout
Local Sidereal Time
21:09:30
Azimuth
41.221° NE
Elevation
-60.502°
Doppler factor
1
Orbital elements
Apogee altitude
1,220.087 km
Perigee altitude
1,216.93 km
Semi-major axis
7,596.646 km
Eccentricity
0.00021
Inclination
87.8829°
RAAN
105.0087°
Arg. of periapsis
74.6271°
True anomaly
Unknown
Mean anomaly
285.5086°
Eccentric anomaly
Unknown
Mean motion
3.27801 °/min
Orbital period
109.82 mins
BSTAR
0.0013468
Loading maneuver chart data...
Loading SW <> Apogee altitude chart data...
Loading historical data...
Loading historical data...
Loading historical data...
Loading historical data...
Loading historical data...
Loading historical data...
Loading historical data...

ONEWEB-0022 Visibility forecast

Observer location: undefined°, undefined°

Span
Click to sort rows by Start time (UTC) header in descending order
Start Az.
Max El. time (UTC)
Max El. Az.
Max El.
End time (UTC)
End Az.
13 mins2025-07-08 18:17:41.713Z156.515° SSE2025-07-08 18:24:41.713Z70.876° E38.329°2025-07-08 18:30:41.713Z11.595° NNE
10 mins2025-07-08 20:09:41.713Z232.94° WSW2025-07-08 20:14:41.713Z284.487° WNW24.754°2025-07-08 20:19:41.713Z333.353° NNW
12 mins2025-07-09 05:48:41.713Z18.23° NNE2025-07-09 05:53:41.713Z72.745° E33.914°2025-07-09 06:00:41.713Z151.22° SSE
11 mins2025-07-09 07:38:41.713Z336.37° NNW2025-07-09 07:43:41.713Z284.652° WNW29.264°2025-07-09 07:49:41.713Z222.31° SW
|